Regional Weather Roundup
Issued by NWS

Home | Current Version | Previous Version | Graphics & Text | Print | Product List | Glossary On
Versions: 1 2 3 4 5 6 7 8 9 10 11 12 13 14 15 16 17 18 19 20 21 22 23 24 25 26 27
000
ASUS45 KBOI 190710
RWRID

IDAHO REGIONAL WEATHER ROUNDUP
NATIONAL WEATHER SERVICE BOISE ID
1200 AM MST MON FEB 19 2018

NOTE: "FAIR" INDICATES FEW OR NO CLOUDS BELOW 12000 FEET
WITH NO SIGNIFICANT WEATHER AND/OR OBSTRUCTIONS TO VISIBILITY

IDZ012-014-190800-
SOUTHWEST IDAHO


CITY           SKY/WX    TMP DP  RH WIND       PRES   REMARKS
BOISE          CLEAR     26  21  81 E3        29.64R
CALDWELL       CLEAR     27  18  69 CALM      29.66R
MOUNTAIN HOME  PTCLDY    25  25  99 NW8       29.63R WCI  17
$$

IDZ016-017-190800-
SOUTHCENTRAL IDAHO


CITY           SKY/WX    TMP DP  RH WIND       PRES   REMARKS
BURLEY         MOCLDY    23  16  74 SW7       29.56R WCI  15
JEROME         MOCLDY    26  21  81 S9        29.58R WCI  17
TWIN FALLS     MOCLDY    21  15  78 S13       29.58R WCI   9
$$

IDZ019>023-190800-
SOUTHEAST IDAHO


CITY           SKY/WX    TMP DP  RH WIND       PRES   REMARKS
IDAHO FALLS    MOCLDY    26  21  81 SW17      29.52S WCI  13
POCATELLO      CLOUDY    27  19  72 SW15      29.54S WCI  15
REXBURG        CLOUDY    25  20  81 SW14G23   29.49F WCI  13
$$

IDZ006-010-011-018-031-032-190800-
CENTRAL IDAHO MOUNTAINS


CITY           SKY/WX    TMP DP  RH WIND       PRES   REMARKS
MCCALL         LGT SNOW  18  15  88 N5        29.52R FOG     WCI  11
HAILEY         CLEAR     19   9  63 NW10      29.51R WCI   8
STANLEY          N/A     -1  -4  87 S3        29.48R
SALMON         CLOUDY    17   5  59 N13       29.64S WCI   4
CHALLIS        PTCLDY    19   7  59 CALM      29.51R
$$

IDZ002-004-006-007-026-190800-
NORTHERN IDAHO


CITY           SKY/WX    TMP DP  RH WIND       PRES   REMARKS
LEWISTON       FLURRIES  30  26  85 S6        29.77R WCI  24
LOWELL           N/A     24  14  65 VRB6      29.82R WCI  17
COEUR D`ALENE  PTCLDY    11   2  67 N21       29.87R WCI  -8
MULLAN PASS    CLOUDY    -4  -7  87 VRB7      29.57S WCI -18
$$




USA.gov is the U.S. government's official web portal to all federal, state and local government web resources and services.